sat.trackr.live / text

‹ back to catalog

STARLINK-3801

NORAD 52356 · 2022-045AB

PAYLOAD ACTIVE UNKNOWN

§ Identity

Operator
Country
US
Launch date
2022-04-29
Launch site
AFETR
Launch vehicle
Mass (kg)
RCS (m²)

Purposes: comms

External: N2YO · Heavens-Above · Gunter

§ Orbital elements

Epoch: 2026-09-19T22:06:53.747424Z

Period
93.83 min
Inclination
53.1596°
Eccentricity
0.0002669
Mean motion
15.34636655 rev/d
Perigee alt
460.2 km
Apogee alt
463.8 km
Semi-major
6,840.1 km
B*
9.0793e-4
RAAN
32.1134°
Arg perigee
133.2598°
Mean anomaly
226.8627°
Rev number
24,531

§ Raw data

STARLINK-38011 52356U 22045AB  26262.92145541  .00030658  00000+0  90793-3 0  99952 52356  53.1596  32.1134 0002669 133.2598 226.8627 15.34636655245312

JSON: /api/v1/satellites/52356 · /tle

For live sub-satellite position, see the globe view (requires WebGL).

§ Visibility from observer

Set your observer location to see the next 7 days of passes ≥ 10°. The values pass through the URL so the page stays shareable.

No JS? Fill the form by hand. The geolocation button needs JavaScript.